Location: ??????
(38.1303°N, 24.0039°E)
Time: 17:08:48
(UTC+00:00)

ADEOS Rocket - Pass Details

Date: 20 June 2021
Orbit: 858 x 1307 km, 98.7° (Epoch: 27 July)

Event Time Altitude Azimuth Distance (km) Brightness Sun altitude
Exits shadow 00:45:31 16° 167° (SSE) 2,777 5.0 -20.2°
Maximum altitude 00:51:44 87° 256° (WSW) 1,185 3.3 -19.5°
Drops below altitude 10° 00:58:32 10° 346° (NNW) 2,949 6.0 -18.7°
Sets 01:00:58 0° 347° (NNW) 3,848 6.7 -18.5°
